Location: Esp�n
(42.4593°N, 0.2047°W)
Time: 22:19:30
(UTC+00:00)

STARLINK-70 - Pass Details

Date: 09 October 2020
Orbit: 441 x 442 km, 53.0° (Epoch: 26 October)

Event Time Altitude Azimuth Distance (km) Brightness Sun altitude
Exits shadow 04:03:41 45° 38° (NE) 616 4.1 -23.5°
Drops below altitude 10° 04:06:14 10° 51° (NE) 1,560 6.8 -23.0°
Sets 04:08:22 0° 53° (NE) 2,433 8.0 -22.6°
